{"data":{"norad_id":63738,"intl_designator":"2025-088Q","name":"KUIPER-00024","alt_names":[],"object_type":"PAYLOAD","status":"ACTIVE","operator":null,"country":"US","launch_date":"2025-04-28","launch_site_code":"AFETR","launch_vehicle":null,"mission":null,"orbit_class":"UNKNOWN","rcs_meters":null,"size_class":null,"mass_kg":null,"dimensions":null,"purposes":[],"wikipedia_slug":null,"has_3d_model":false,"image_url":null,"decayed_at":null,"tle_current":{"epoch":"2026-09-21T18:28:28.513344Z","epoch_age_seconds":95019,"freshness":"FRESH","line1":"1 63738U 25088Q   26264.76977446  .00000458  00000+0  89144-4 0  9996","line2":"2 63738  51.9039 306.1020 0000391  58.9554 301.1447 14.79927607 77092","mean_motion":14.79927607,"eccentricity":3.91e-5,"inclination_deg":51.9039,"raan_deg":306.102,"arg_perigee_deg":58.9554,"mean_anomaly_deg":301.1447,"bstar":8.9144e-5,"rev_number":7709,"period_min":97.30205674851,"perigee_km":629.27865292585,"apogee_km":629.82665425676,"semimajor_km":7007.6896535913,"source":"CELESTRAK","updated_at":"2026-09-22T09:00:29.319369Z"}}}